SL-14 DEB, 45266

Orbit data source: Space-Track

SL-14 DEB, 45266 is space debris in LEO originally from a launch on Thu, 15 Aug 1991 UTC launched from the Plesetsk Missile And Space Complex (PKMTR). Debris objects in space refer to the collection of defunct objects orbiting the Earth. Examples of debris include non-operational satellites, rocket bodies, and fragments generated from explosions, collisions, or faulty payload assembly.

Loading next visibility...
Identifier
45266, 1991-056C
Orbit
LEO
Country
Flag of CISCIS
Related business
Manufacturer
Unknown
Mission
Spacecraft
Bus & Motor
Unknown
Mass
Unknown
Launch date (UTC)
1991-08-15 (34 years ago)
Launch vehicle
Unknown
Launch site
Plesetsk Missile And Space Complex (PKMTR)
Object type
Payload
Rocket body
Debris
Shape & HBR
Unknown shape, 0.5 m
Radar Cross Section
Medium (>0.1 m² and <1 m²)

Expand to show TLE details & history
Last TLE update: 11 hours ago

TLE from 11 hours ago
0 SL-14 DEB
1 45266U 91056C   26035.57355090 -.00000023  00000-0 -89590-4 0  9996
2 45266  82.5490 229.6713 0005171  32.9190 327.2254 13.18012073287650
Epoch: 2026-02-04T13:45Z
TLE epoch observation values (Epoch: 2026-02-04T13:45:54.797Z)
Latitude
-0.00004°
Longitude
-111.54521°
Altitude
1,191.84 km
Speed
7.259 km/s
True Right ascension
15h 18m 41s
True Declination
0° 00' 00"
Sunlit
Object was in daylight at epoch
Visualization orbit readout
Latitude
Unknown
Longitude
Unknown
Altitude
Unknown
Speed
Unknown
Apparent Right ascension
Unknown
Apparent Declination
Unknown
Sunlit
N/A
Visualization observer readout
Local Sidereal Time
02:23:05
Azimuth
Unknown
Elevation
Unknown
Doppler factor
Unknown
Orbital elements
Apogee altitude
1,193.479 km
Perigee altitude
1,185.653 km
Semi-major axis
7,567.703 km
Eccentricity
0.00052
Inclination
82.549°
RAAN
229.6713°
Arg. of periapsis
32.919°
True anomaly
327.19331°
Mean anomaly
327.2254°
Eccentric anomaly
327.20935°
Mean motion
3.29683 °/min
Orbital period
109.2 mins
BSTAR
-0.00008959
Loading maneuver chart data...
Computing Atmospheric mass density...
Loading historical data...
Loading historical data...
Loading historical data...
Loading historical data...
Loading historical data...
Loading historical data...
Loading historical data...

Documentation

Showing up to 5 results
|